Tracking 34151 objects as of 20-May-2026
HD Live streaming from Space Station
objects crossing your sky now

TITAN 34D TRANSTAGE DEB

Track TITAN 34D TRANSTAGE DEB now!


NORAD ID: 22818
Int'l Code: 1988-077F
Perigee: 409.8 km
Apogee: 31,541.6 km
Inclination: 26.7 °
Period: 554.1 minutes
Semi major axis: 22346 km
RCS: Unknown
Launch date: September 2, 1988
Source: United States (US)
Launch site: AIR FORCE EASTERN TEST RANGE (AFETR)

Note: This is SATELLITE DEBRIS
Your satellite tracking list
Your tracking list is empty




NASA's NSSDC Master Catalog

Two Line Element Set (TLE):
1 22818U 88077F   26140.34531087  .00000328  00000-0  96301-3 0  9990
2 22818  26.6901 194.5543 6965616 140.9349 299.3552  2.59885881 63476
Source of the keplerian elements: AFSPC